Dewpoint
75 74 74 74 76 73 76 73 75 75 75 74 75 75 76 76 74 74 74 74 75 73
75 75 75 72 73 75 76 75 73 74 75 75 75 75 75 75 74 75 75 74 75 74
75 75 76 73 74 75 75 76 74 74 74 74 75 74 76 75 76 75 74 72 74 74
74 75 75 73 75 76 76 76 76 77 75 74 73 74 75 75 75 74 73 74 74 73
75 75 73 74 73 75 75 76 77 76 76 74 75 75 74 75 74 73 74 73 73 72
74 71 76 74 75 74 72 73 71 75 75 74 74 74 74 74 73 73 74 73 73 73
72 72 73 73 71 71 73 73 72 72 72 72 72 71 72 74 73 73 73 72 73 73
74 72 72 74 73 72 72 71 71 72 71 71 65 62 66 68 70 69 70 70 71 71
74 73 73 74 73 72 71 71 71 70 70 66 60 62 63 64 67 68 68 68 69 70
73 73 73 73 72 72 72 71 71 70 70 68 62 59 59 62 65 67 68 68 68 66
73 72 72 72 71 71 71 71 71 69 70 65 57 56 57 59 65 67 66 66 66 67
71 71 71 70 70 69 69 69 70 69 68 66 61 55 55 58 64 67 66 66 65 65
70 70 70 71 70 68 67 69 67 67 66 63 62 53 54 55 59 62 64 63 59 57
71 70 70 68 68 67 67 68 68 65 66 65 61 56 53 53 57 60 61 62 59 55
Lifted_Index
-5 -5 -5 -4 -4 -4 -4 -4 -4 -4 -5 -5 -5 -5 -5 -5 -5 -5 -5 -5 -5 -5
-6 -5 -5 -4 -4 -4 -5 -5 -5 -5 -5 -5 -5 -5 -5 -5 -5 -5 -5 -5 -5 -5
-6 -6 -5 -5 -5 -5 -5 -5 -5 -5 -5 -5 -5 -5 -5 -6 -5 -5 -5 -5 -5 -5
-6 -6 -6 -6 -6 -6 -6 -6 -6 -6 -6 -5 -5 -5 -6 -6 -6 -6 -5 -5 -5 -5
-6 -6 -6 -6 -6 -6 -6 -6 -6 -6 -6 -6 -6 -5 -6 -6 -6 -6 -6 -6 -5 -5
-6 -6 -6 -6 -5 -5 -5 -5 -5 -5 -6 -6 -6 -5 -6 -6 -5 -6 -6 -6 -5 -5
-7 -7 -6 -5 -5 -4 -4 -4 -4 -4 -4 -4 -4 -4 -4 -5 -4 -4 -4 -4 -4 -5
-7 -7 -6 -5 -4 -4 -4 -3 -3 -3 -3 -3 -2 -2 -2 -2 -2 -2 -2 -2 -3 -3
-7 -7 -6 -6 -5 -4 -4 -3 -3 -2 -2 -2 -1 1 1 1 0 -0 -0 -1 -1 -1
-7 -7 -6 -6 -5 -4 -3 -3 -2 -2 -2 -1 1 3 4 3 2 1 0 1 0 0
-7 -7 -6 -5 -5 -4 -3 -2 -2 -2 -1 -0 2 4 5 4 2 1 1 1 1 2
-6 -6 -5 -5 -4 -3 -3 -2 -2 -1 -1 1 3 5 5 5 3 2 2 2 2 3
-5 -5 -4 -4 -3 -2 -1 -1 -1 -0 0 1 3 5 6 6 5 3 2 2 3 3
-4 -4 -4 -3 -2 -1 -1 -1 -0 0 1 2 3 4 6 6 6 4 3 3 3 4